When you browse on this site, cookies collect data to enhance your experience and personalize the content and advertising you see.
Visit our Privacy Policy to learn more. By continuing to use the site, you agree to this use of cookies and data.
  • In Deutschland
  • Länderverzeichnis
  • Für 7 Tage
  • Wassertemperatur
  • Satellitenkarten
  • Wetterkarte
  • Widgets
  • user-avatar
    Anmelden

    Stündliche Wetter Yelsk

    Heute, 25 April, Donnerstag

    Zeit Temperatur Niederschläge Wind Luftdruck Luftfeuchtigkeit
    00:00 +12°C° 0 mm 1 m/S 754 mmHg 62%
    01:00 +11°C° 0 mm 1 m/S 755 mmHg 63%
    02:00 +11°C° 0 mm 1 m/S 754 mmHg 64%
    03:00 +10°C° 0 mm 1 m/S 754 mmHg 63%
    04:00 +10°C° 0 mm 1 m/S 754 mmHg 63%
    05:00 +9°C° 0 mm 1 m/S 754 mmHg 63%
    06:00 +12°C° 0 mm 2 m/S 754 mmHg 57%
    07:00 +13°C° 0 mm 3 m/S 754 mmHg 51%
    08:00 +14°C° 0 mm 4 m/S 754 mmHg 43%
    09:00 +17°C° 0 mm 4 m/S 754 mmHg 38%
    10:00 +17°C° 0 mm 5 m/S 754 mmHg 33%
    11:00 +20°C° 0 mm 6 m/S 754 mmHg 28%
    12:00 +20°C° 0 mm 5 m/S 753 mmHg 28%
    13:00 +21°C° 0 mm 5 m/S 753 mmHg 27%
    14:00 +21°C° 0 mm 5 m/S 753 mmHg 27%
    15:00 +21°C° 0 mm 5 m/S 753 mmHg 29%
    16:00 +21°C° 0 mm 5 m/S 752 mmHg 32%
    17:00 +20°C° 0 mm 4 m/S 752 mmHg 34%
    18:00 +18°C° 0 mm 4 m/S 752 mmHg 41%
    19:00 +16°C° 0 mm 3 m/S 752 mmHg 48%
    20:00 +14°C° 0 mm 2 m/S 751 mmHg 55%
    21:00 +14°C° 0 mm 2 m/S 752 mmHg 58%
    22:00 +13°C° 0 mm 2 m/S 752 mmHg 60%
    23:00 +12°C° 0 mm 2 m/S 752 mmHg 63%

    Morgen, 26 April, Freitag

    Zeit Temperatur Niederschläge Wind Luftdruck Luftfeuchtigkeit
    00:00 +12°C° 0 mm 2 m/S 752 mmHg 65%
    01:00 +10°C° 0 mm 2 m/S 751 mmHg 67%
    02:00 +10°C° 0 mm 2 m/S 751 mmHg 69%
    03:00 +10°C° 0 mm 2 m/S 751 mmHg 71%
    04:00 +9°C° 0 mm 2 m/S 751 mmHg 72%
    05:00 +9°C° 0 mm 2 m/S 751 mmHg 73%
    06:00 +11°C° 0 mm 3 m/S 751 mmHg 67%
    07:00 +13°C° 0 mm 3 m/S 750 mmHg 61%
    08:00 +14°C° 0 mm 4 m/S 750 mmHg 55%
    09:00 +17°C° 0 mm 4 m/S 750 mmHg 50%
    10:00 +19°C° 0 mm 4 m/S 750 mmHg 45%
    11:00 +21°C° 0 mm 5 m/S 750 mmHg 39%
    12:00 +21°C° 0 mm 5 m/S 749 mmHg 38%
    13:00 +22°C° 0 mm 5 m/S 749 mmHg 36%
    14:00 +23°C° 0 mm 5 m/S 749 mmHg 34%
    15:00 +22°C° 0 mm 5 m/S 748 mmHg 37%
    16:00 +22°C° 0 mm 5 m/S 748 mmHg 39%
    17:00 +21°C° 0 mm 4 m/S 747 mmHg 41%
    18:00 +20°C° 0 mm 4 m/S 747 mmHg 48%
    19:00 +18°C° 0 mm 3 m/S 747 mmHg 55%
    20:00 +16°C° 0 mm 3 m/S 747 mmHg 62%
    21:00 +16°C° 0 mm 3 m/S 747 mmHg 63%
    22:00 +14°C° 0 mm 4 m/S 747 mmHg 64%
    23:00 +14°C° 0 mm 4 m/S 747 mmHg 65%

    übermorgen, 27 April, Samstag

    Zeit Temperatur Niederschläge Wind Luftdruck Luftfeuchtigkeit
    00:00 +14°C° 0 mm 4 m/S 747 mmHg 67%
    01:00 +13°C° 0 mm 4 m/S 746 mmHg 69%
    02:00 +13°C° 0 mm 4 m/S 746 mmHg 70%
    03:00 +13°C° 0 mm 4 m/S 745 mmHg 71%
    04:00 +13°C° 0 mm 4 m/S 745 mmHg 71%
    05:00 +13°C° 0 mm 4 m/S 745 mmHg 72%
    06:00 +13°C° 0.2 mm 4 m/S 745 mmHg 70%
    07:00 +14°C° 0.2 mm 4 m/S 744 mmHg 69%
    08:00 +14°C° 0.2 mm 4 m/S 744 mmHg 68%
    09:00 +15°C° 0.1 mm 4 m/S 744 mmHg 66%
    10:00 +17°C° 0.1 mm 4 m/S 744 mmHg 65%
    11:00 +18°C° 0.1 mm 4 m/S 744 mmHg 64%
    12:00 +18°C° 0.7 mm 4 m/S 744 mmHg 66%
    13:00 +19°C° 0.7 mm 4 m/S 743 mmHg 67%
    14:00 +19°C° 0.7 mm 4 m/S 743 mmHg 69%
    15:00 +20°C° 0.1 mm 3 m/S 743 mmHg 69%
    16:00 +20°C° 0.1 mm 3 m/S 742 mmHg 69%
    17:00 +21°C° 0.1 mm 2 m/S 742 mmHg 68%
    18:00 +20°C° 1.7 mm 2 m/S 742 mmHg 75%
    19:00 +18°C° 1.7 mm 2 m/S 742 mmHg 81%
    20:00 +17°C° 1.7 mm 2 m/S 742 mmHg 87%
    21:00 +17°C° 0.3 mm 2 m/S 742 mmHg 88%
    22:00 +17°C° 0.3 mm 3 m/S 742 mmHg 89%
    23:00 +16°C° 0.3 mm 3 m/S 742 mmHg 89%

    28 April, Sonntag

    Zeit Temperatur Niederschläge Wind Luftdruck Luftfeuchtigkeit
    00:00 +16°C° 0.1 mm 3 m/S 742 mmHg 91%
    01:00 +15°C° 0.1 mm 2 m/S 741 mmHg 92%
    02:00 +15°C° 0.1 mm 2 m/S 741 mmHg 93%
    03:00 +15°C° 0 mm 2 m/S 741 mmHg 93%
    04:00 +15°C° 0 mm 1 m/S 741 mmHg 93%
    05:00 +15°C° 0 mm 1 m/S 741 mmHg 93%
    06:00 +16°C° 0 mm 1 m/S 741 mmHg 88%
    07:00 +18°C° 0 mm 1 m/S 741 mmHg 82%
    08:00 +19°C° 0 mm 1 m/S 742 mmHg 77%
    09:00 +21°C° 0 mm 1 m/S 741 mmHg 70%
    10:00 +22°C° 0 mm 1 m/S 741 mmHg 64%
    11:00 +24°C° 0 mm 1 m/S 741 mmHg 57%
    12:00 +25°C° 0 mm 1 m/S 741 mmHg 53%
    13:00 +25°C° 0 mm 1 m/S 741 mmHg 48%
    14:00 +26°C° 0 mm 2 m/S 741 mmHg 44%
    15:00 +26°C° 0.2 mm 1 m/S 741 mmHg 45%
    16:00 +25°C° 0.2 mm 1 m/S 741 mmHg 46%
    17:00 +25°C° 0.2 mm 1 m/S 741 mmHg 47%
    18:00 +23°C° 1.1 mm 2 m/S 741 mmHg 57%
    19:00 +19°C° 1.1 mm 2 m/S 741 mmHg 68%
    20:00 +17°C° 1.1 mm 3 m/S 741 mmHg 79%
    21:00 +17°C° 0.9 mm 4 m/S 742 mmHg 83%
    22:00 +15°C° 0.9 mm 4 m/S 742 mmHg 87%
    23:00 +14°C° 0.9 mm 5 m/S 742 mmHg 90%

    29 April, Montag

    Zeit Temperatur Niederschläge Wind Luftdruck Luftfeuchtigkeit
    00:00 +13°C° 0.5 mm 5 m/S 742 mmHg 91%
    01:00 +12°C° 0.5 mm 5 m/S 742 mmHg 91%
    02:00 +11°C° 0.5 mm 6 m/S 743 mmHg 91%
    03:00 +10°C° 1.7 mm 6 m/S 743 mmHg 91%
    04:00 +9°C° 1.7 mm 6 m/S 743 mmHg 91%
    05:00 +8°C° 1.7 mm 6 m/S 743 mmHg 91%
    06:00 +7°C° 1.9 mm 6 m/S 744 mmHg 90%
    07:00 +7°C° 1.9 mm 6 m/S 744 mmHg 89%
    08:00 +5°C° 1.9 mm 6 m/S 744 mmHg 89%
    09:00 +5°C° 0.7 mm 6 m/S 745 mmHg 87%
    10:00 +5°C° 0.7 mm 6 m/S 745 mmHg 86%
    11:00 +4°C° 0.7 mm 6 m/S 745 mmHg 84%
    12:00 +5°C° 0.3 mm 6 m/S 745 mmHg 82%
    13:00 +5°C° 0.3 mm 6 m/S 745 mmHg 80%
    14:00 +7°C° 0.3 mm 6 m/S 745 mmHg 78%
    15:00 +7°C° 0.1 mm 5 m/S 745 mmHg 77%
    16:00 +7°C° 0.1 mm 5 m/S 745 mmHg 76%
    17:00 +8°C° 0.1 mm 4 m/S 745 mmHg 75%
    18:00 +7°C° 0 mm 4 m/S 745 mmHg 77%
    19:00 +6°C° 0 mm 4 m/S 746 mmHg 78%
    20:00 +7°C° 0 mm 3 m/S 746 mmHg 80%
    21:00 +7°C° 0 mm 3 m/S 746 mmHg 79%
    22:00 +5°C° 0 mm 3 m/S 746 mmHg 79%
    23:00 +5°C° 0 mm 4 m/S 746 mmHg 79%

    30 April, Dienstag

    Zeit Temperatur Niederschläge Wind Luftdruck Luftfeuchtigkeit
    00:00 +4°C° 0 mm 4 m/S 746 mmHg 78%
    01:00 +4°C° 0 mm 4 m/S 746 mmHg 77%
    02:00 +4°C° 0 mm 4 m/S 745 mmHg 76%
    03:00 +3°C° 0 mm 4 m/S 745 mmHg 77%
    04:00 +3°C° 0 mm 4 m/S 745 mmHg 78%
    05:00 +3°C° 0 mm 4 m/S 745 mmHg 78%
    06:00 +3°C° 0 mm 5 m/S 746 mmHg 74%
    07:00 +5°C° 0 mm 5 m/S 746 mmHg 69%
    08:00 +5°C° 0 mm 6 m/S 746 mmHg 65%
    09:00 +8°C° 0 mm 6 m/S 746 mmHg 60%
    10:00 +9°C° 0 mm 6 m/S 746 mmHg 56%
    11:00 +10°C° 0 mm 6 m/S 746 mmHg 51%
    12:00 +11°C° 0 mm 6 m/S 746 mmHg 51%
    13:00 +11°C° 0 mm 6 m/S 745 mmHg 50%
    14:00 +11°C° 0 mm 6 m/S 745 mmHg 50%
    15:00 +12°C° 0 mm 5 m/S 745 mmHg 52%
    16:00 +10°C° 0 mm 5 m/S 745 mmHg 54%
    17:00 +10°C° 0 mm 5 m/S 745 mmHg 55%
    18:00 +10°C° 0 mm 4 m/S 745 mmHg 60%
    19:00 +7°C° 0 mm 4 m/S 746 mmHg 64%
    20:00 +7°C° 0 mm 3 m/S 746 mmHg 68%
    21:00 +5°C° 0 mm 3 m/S 746 mmHg 71%
    22:00 +5°C° 0 mm 3 m/S 746 mmHg 73%
    23:00 +5°C° 0 mm 2 m/S 746 mmHg 76%
    Mehr zeigen